GW0518 Weather Reports


Display with metric or nautical units.
time (UTC)temp
F
wind
direction
speed
MPH
gust
MPH
rain 1hr
in
rain 24hr
in
rain mn
in
humidity
%
barometer
mb
20260509042801 38 81 0.0 0.0 0.00 0.12 0.00 88 1011.5
20260509042300 38 81 0.0 1.0 0.00 0.12 0.00 88 1011.6
20260509042017 38 81 0.0 1.0 0.00 0.12 0.00 88 1011.5
20260509041302 38 81 0.0 2.0 0.00 0.12 0.00 87 1011.7
20260509040801 38 81 0.0 2.0 0.00 0.12 0.00 87 1011.7
20260509035801 38 81 0.0 0.0 0.00 0.12 0.12 86 1011.6
20260509035301 38 81 0.0 0.0 0.00 0.12 0.12 86 1011.6
20260509034801 38 81 0.0 0.0 0.00 0.12 0.12 85 1011.7
20260509034301 38 81 0.0 0.0 0.00 0.12 0.12 85 1011.7
20260509033300 38 81 0.0 0.0 0.00 0.12 0.12 85 1011.9
20260509033024 38 81 0.0 0.0 0.00 0.12 0.12 85 1011.7
20260509032523 38 81 0.0 0.0 0.00 0.12 0.12 84 1011.7
20260509031801 38 81 0.0 0.0 0.00 0.12 0.12 84 1011.7
20260509031525 38 81 0.0 0.0 0.00 0.12 0.12 83 1011.7
20260509030800 38 81 0.0 0.0 0.00 0.12 0.12 82 1011.7
20260509030301 38 81 0.0 0.0 0.00 0.12 0.12 82 1011.7
20260509025759 39 81 0.0 0.0 0.00 0.12 0.12 81 1011.7
20260509025259 39 81 0.0 0.0 0.00 0.12 0.12 81 1011.7
20260509024759 39 81 0.0 0.0 0.00 0.12 0.12 81 1011.9
20260509024300 39 81 0.0 0.0 0.00 0.12 0.12 80 1011.9
20260509023259 40 81 0.0 0.0 0.00 0.12 0.12 80 1012.0
20260509022759 40 81 0.0 0.0 0.00 0.12 0.12 80 1011.9
20260509022259 40 81 0.0 0.0 0.00 0.12 0.12 80 1012.0
20260509021801 40 81 0.0 0.0 0.00 0.12 0.12 79 1011.9
20260509021259 40 81 0.0 0.0 0.00 0.12 0.12 78 1011.9
20260509020759 41 81 0.0 0.0 0.00 0.12 0.12 78 1011.9
20260509020259 41 81 0.0 0.0 0.00 0.12 0.12 78 1012.0
20260509020019 41 81 0.0 0.0 0.00 0.12 0.12 77 1012.0
20260509015259 42 81 0.0 0.0 0.00 0.12 0.12 77 1011.9
20260509014759 42 81 0.0 0.0 0.00 0.12 0.12 77 1011.9
20260509014259 42 81 0.0 1.0 0.00 0.12 0.12 77 1011.7
20260509014027 42 81 0.0 1.0 0.00 0.12 0.12 76 1011.7
20260509013521 43 81 0.0 0.0 0.00 0.12 0.12 75 1011.7
20260509013022 43 81 0.0 0.0 0.00 0.12 0.12 73 1011.5
20260509012259 43 81 0.0 0.0 0.00 0.12 0.12 72 1011.4
20260509011759 44 81 0.0 0.0 0.00 0.12 0.12 71 1011.3
20260509011017 44 81 0.0 0.0 0.00 0.12 0.12 69 1011.2
20260509010259 45 81 0.0 0.0 0.00 0.12 0.12 68 1011.1
20260509010018 46 81 0.0 0.0 0.00 0.12 0.12 68 1011.1
20260509005300 46 81 0.0 0.0 0.00 0.12 0.12 67 1010.9
20260509004759 46 81 0.0 0.0 0.00 0.12 0.12 67 1010.9
20260509004259 47 81 0.0 0.0 0.00 0.12 0.12 66 1010.9
20260509003759 47 81 0.0 1.0 0.00 0.12 0.12 65 1011.0
20260509003259 48 81 0.0 1.0 0.00 0.12 0.12 64 1010.9
20260509003026 48 81 0.0 1.0 0.00 0.12 0.12 62 1010.8
20260509002259 49 81 0.0 0.0 0.00 0.12 0.12 60 1010.8
20260509002021 50 81 0.0 0.0 0.00 0.12 0.12 59 1010.8
20260509001258 51 81 0.0 2.0 0.00 0.12 0.12 57 1010.8
20260509000759 51 81 0.0 2.0 0.00 0.12 0.12 55 1010.7
20260509000259 52 81 0.0 0.0 0.00 0.12 0.12 53 1010.7
20260508235759 52 81 0.0 0.0 0.00 0.12 0.12 52 1010.7
20260508235259 53 81 0.0 2.0 0.00 0.12 0.12 52 1010.7
20260508234759 53 81 1.0 3.0 0.00 0.12 0.12 51 1010.7
20260508234524 54 81 0.0 3.0 0.00 0.12 0.12 47 1010.6
20260508233759 54 81 0.0 2.0 0.00 0.12 0.12 46 1010.6
20260508233300 54 81 1.0 2.0 0.00 0.12 0.12 45 1010.5
20260508232758 55 81 1.0 4.0 0.00 0.12 0.12 47 1010.5
20260508232259 55 81 1.0 4.0 0.00 0.12 0.12 46 1010.5
20260508231759 55 81 1.0 4.0 0.00 0.12 0.12 46 1010.5
20260508231257 55 80 1.0 4.0 0.00 0.12 0.12 46 1010.5
20260508230757 55 80 1.0 5.0 0.00 0.12 0.12 45 1010.5
20260508230257 55 27 2.0 5.0 0.00 0.12 0.12 47 1010.4
20260508225757 55 30 3.0 5.0 0.00 0.12 0.12 45 1010.4
20260508225518 55 40 3.0 6.0 0.00 0.12 0.12 46 1010.4
20260508224757 55 40 2.0 6.0 0.00 0.12 0.12 47 1010.4
20260508224257 55 55 2.0 4.0 0.00 0.12 0.12 48 1010.5
20260508224018 55 55 2.0 5.0 0.00 0.12 0.12 48 1010.5
20260508223522 56 55 2.0 8.0 0.00 0.12 0.12 48 1010.4
20260508222757 56 10 2.0 8.0 0.00 0.12 0.12 48 1010.5
20260508222257 55 51 2.0 4.0 0.00 0.12 0.12 50 1010.6
20260508221757 55 51 1.0 4.0 0.00 0.12 0.12 50 1010.7
20260508221257 55 51 2.0 5.0 0.00 0.12 0.12 50 1010.7
20260508220756 55 51 3.0 5.0 0.00 0.12 0.12 49 1010.6
20260508220257 55 79 3.0 7.0 0.00 0.12 0.12 51 1010.7
20260508215758 55 79 4.0 8.0 0.00 0.12 0.12 51 1010.7
20260508215520 55 355 3.0 10.0 0.00 0.12 0.12 51 1010.8
20260508214757 54 0 2.0 10.0 0.00 0.12 0.12 52 1010.9
20260508214257 54 290 2.0 5.0 0.00 0.12 0.12 49 1010.9
20260508213757 55 290 2.0 8.0 0.00 0.12 0.12 50 1010.9
20260508213257 55 300 2.0 8.0 0.00 0.12 0.12 49 1011.0
20260508212757 55 272 2.0 6.0 0.00 0.12 0.12 51 1010.9
20260508212257 54 347 2.0 4.0 0.00 0.12 0.12 52 1011.0
20260508211757 54 264 3.0 9.0 0.00 0.12 0.12 50 1010.9
20260508211257 54 269 4.0 9.0 0.00 0.12 0.12 52 1011.0
20260508210757 54 257 4.0 9.0 0.00 0.12 0.12 50 1011.0
20260508210257 54 222 3.0 9.0 0.00 0.12 0.12 52 1011.0
20260508205757 54 263 2.0 8.0 0.00 0.12 0.12 53 1011.0
20260508205257 54 333 4.0 10.0 0.00 0.12 0.12 53 1011.0
20260508204757 54 204 5.0 10.0 0.00 0.12 0.12 52 1011.1
20260508204257 55 22 5.0 10.0 0.00 0.12 0.12 52 1011.1
20260508203757 55 303 4.0 10.0 0.00 0.12 0.12 54 1011.1
20260508203257 54 44 4.0 9.0 0.00 0.12 0.12 54 1011.2
20260508202756 54 105 4.0 9.0 0.00 0.12 0.12 54 1011.2
20260508202519 54 23 3.0 10.0 0.00 0.12 0.12 57 1011.1
20260508201756 53 34 3.0 10.0 0.00 0.12 0.12 56 1011.2
20260508201257 53 289 4.0 10.0 0.00 0.12 0.12 55 1011.2
20260508200757 53 298 4.0 10.0 0.00 0.12 0.12 55 1011.2
20260508200257 53 244 3.0 8.0 0.00 0.12 0.12 58 1011.3
20260508195756 53 328 4.0 10.0 0.00 0.12 0.12 58 1011.4
20260508195256 53 315 4.0 10.0 0.00 0.12 0.12 57 1011.4
20260508194801 54 262 4.0 9.0 0.00 0.12 0.12 63 1011.4
20260508194523 54 321 4.0 13.0 0.00 0.12 0.12 58 1011.5
20260508193757 54 238 4.0 13.0 0.00 0.12 0.12 57 1011.6
20260508193257 53 355 5.0 12.0 0.00 0.12 0.12 61 1011.6
20260508193023 53 284 5.0 15.0 0.00 0.12 0.12 59 1011.9
20260508192257 53 304 3.0 15.0 0.00 0.12 0.12 61 1011.6
20260508191756 52 221 4.0 10.0 0.00 0.12 0.12 65 1011.6
20260508191257 53 266 4.0 13.0 0.00 0.12 0.12 65 1011.7
20260508190756 53 294 5.0 13.0 0.00 0.12 0.12 66 1011.6
20260508190256 52 250 5.0 13.0 0.00 0.12 0.12 63 1011.7
20260508185757 53 245 4.0 13.0 0.00 0.12 0.12 66 1011.7
20260508185257 52 292 4.0 13.0 0.00 0.12 0.12 66 1011.6
20260508185015 51 300 4.0 9.0 0.00 0.12 0.12 67 1011.7
20260508184256 51 255 5.0 10.0 0.00 0.12 0.12 67 1012.0
20260508183757 51 223 5.0 14.0 0.00 0.12 0.12 65 1012.1
20260508182757 50 254 3.0 8.0 0.00 0.12 0.12 69 1012.1
20260508182256 50 248 3.0 8.0 0.00 0.12 0.12 71 1012.3
20260508181756 49 255 3.0 9.0 0.00 0.12 0.12 69 1012.2
20260508181256 49 276 3.0 9.0 0.00 0.12 0.12 70 1012.4
20260508180756 49 257 4.0 10.0 0.00 0.12 0.12 71 1012.4
20260508180257 49 240 4.0 10.0 0.00 0.12 0.12 70 1012.5
20260508175756 49 273 4.0 12.0 0.00 0.12 0.12 72 1012.3
20260508175256 49 237 4.0 12.0 0.00 0.12 0.12 72 1012.4
20260508174758 49 250 4.0 9.0 0.00 0.12 0.12 73 1012.4
20260508174256 49 266 4.0 11.0 0.00 0.12 0.12 72 1012.4
20260508173757 49 300 4.0 11.0 0.00 0.12 0.12 73 1012.3
20260508173256 49 227 4.0 11.0 0.00 0.12 0.12 72 1012.4
20260508172757 49 301 4.0 13.0 0.00 0.12 0.12 73 1012.4
20260508172256 49 229 4.0 13.0 0.00 0.12 0.12 76 1012.5
20260508171756 49 277 4.0 13.0 0.00 0.12 0.12 74 1012.6
20260508171257 49 288 5.0 15.0 0.00 0.12 0.12 73 1012.6
20260508170756 49 325 6.0 15.0 0.00 0.12 0.12 78 1012.7
20260508170520 48 215 5.0 14.0 0.00 0.12 0.12 78 1012.8
20260508165754 48 252 5.0 16.0 0.00 0.12 0.12 78 1012.9
20260508165253 48 225 6.0 16.0 0.00 0.12 0.12 76 1012.9
20260508164753 49 253 5.0 14.0 0.00 0.12 0.12 79 1013.0
20260508164252 48 223 6.0 13.0 0.00 0.12 0.12 79 1013.0
20260508163752 48 228 6.0 13.0 0.00 0.12 0.12 81 1013.0
20260508163250 48 232 5.0 11.0 0.00 0.12 0.12 83 1012.9
20260508162750 47 217 5.0 10.0 0.00 0.12 0.12 82 1013.0
20260508162250 47 207 4.0 9.0 0.00 0.12 0.12 83 1013.0
20260508161748 47 208 4.0 9.0 0.00 0.12 0.12 85 1013.0
20260508161248 46 193 5.0 11.0 0.00 0.12 0.12 84 1013.1
20260508160748 46 194 6.0 11.0 0.00 0.12 0.12 83 1013.0
20260508160248 45 313 5.0 11.0 0.00 0.12 0.12 83 1013.1
20260508155748 46 238 4.0 9.0 0.00 0.12 0.12 88 1013.0
20260508155249 45 253 4.0 10.0 0.00 0.12 0.12 87 1013.1
20260508154509 45 255 4.0 10.0 0.01 0.12 0.12 89 1013.0
20260508153748 44 245 4.0 10.0 0.01 0.12 0.12 89 1013.0
20260508153248 44 211 4.0 9.0 0.02 0.12 0.12 91 1013.0
20260508152748 43 240 5.0 9.0 0.02 0.12 0.12 91 1012.9
20260508152249 43 229 4.0 9.0 0.02 0.12 0.12 91 1013.1
20260508151748 43 243 3.0 7.0 0.02 0.12 0.12 92 1013.1
20260508151248 42 243 3.0 7.0 0.02 0.12 0.12 92 1013.1
20260508151016 42 196 3.0 7.0 0.02 0.12 0.12 93 1013.1
20260508150508 41 245 3.0 5.0 0.02 0.12 0.12 92 1013.0
20260508145748 40 246 3.0 7.0 0.02 0.12 0.12 92 1013.1
20260508145248 40 253 2.0 7.0 0.02 0.12 0.12 92 1013.2
20260508144748 40 291 1.0 4.0 0.01 0.11 0.11 92 1013.2
20260508144248 40 314 1.0 5.0 0.03 0.11 0.11 92 1013.2
20260508143748 40 315 2.0 9.0 0.05 0.11 0.11 92 1013.3
20260508143249 40 321 2.0 9.0 0.05 0.10 0.10 92 1013.3
20260508142748 40 296 2.0 8.0 0.06 0.10 0.10 92 1013.4
20260508142510 40 307 3.0 10.0 0.06 0.10 0.10 92 1013.4
20260508141748 40 275 3.0 10.0 0.06 0.10 0.10 92 1013.3
20260508141248 40 304 3.0 9.0 0.07 0.10 0.10 92 1013.2
20260508140749 40 259 2.0 8.0 0.07 0.10 0.10 92 1013.0
20260508140248 40 228 2.0 6.0 0.07 0.10 0.10 92 1012.9
20260508135748 40 228 3.0 8.0 0.07 0.10 0.10 92 1012.9
20260508135248 40 224 3.0 8.0 0.07 0.10 0.10 92 1013.0
20260508134749 40 257 4.0 11.0 0.07 0.10 0.09 92 1012.9
20260508134249 41 284 4.0 11.0 0.05 0.08 0.08 92 1013.1
20260508133747 42 307 3.0 10.0 0.03 0.06 0.06 93 1013.2
20260508133249 42 269 4.0 10.0 0.02 0.05 0.04 93 1013.1
20260508132747 42 246 4.0 10.0 0.01 0.04 0.04 93 1013.0
20260508132248 42 252 3.0 10.0 0.01 0.04 0.04 94 1013.0
20260508131748 42 233 2.0 5.0 0.01 0.04 0.04 94 1012.8
20260508131248 43 232 1.0 5.0 0.00 0.03 0.03 95 1012.6
20260508130747 43 232 1.0 5.0 0.00 0.03 0.03 95 1012.6
20260508130248 43 232 2.0 5.0 0.00 0.03 0.03 95 1012.5
20260508130013 43 231 2.0 5.0 0.00 0.03 0.03 95 1012.4
20260508125248 43 230 2.0 6.0 0.00 0.03 0.03 95 1012.4
20260508124748 42 230 2.0 6.0 0.00 0.03 0.03 95 1012.3
20260508124249 43 228 1.0 3.0 0.00 0.03 0.03 95 1012.3
20260508123748 42 228 1.0 3.0 0.00 0.03 0.03 95 1012.3
20260508123248 43 229 2.0 4.0 0.00 0.03 0.03 95 1012.2
20260508123013 42 229 2.0 6.0 0.00 0.03 0.03 95 1012.0
20260508122247 43 228 2.0 6.0 0.00 0.03 0.03 95 1012.1
20260508121248 43 227 2.0 3.0 0.00 0.03 0.03 95 1011.6
20260508120747 42 227 1.0 4.0 0.00 0.03 0.03 95 1011.5
20260508120248 42 227 1.0 4.0 0.00 0.03 0.03 95 1011.5
20260508115748 42 227 2.0 4.0 0.00 0.03 0.03 95 1011.3
20260508115248 42 228 1.0 4.0 0.00 0.03 0.03 95 1011.5
20260508114748 41 228 2.0 4.0 0.00 0.03 0.03 95 1011.7
20260508114510 41 228 1.0 4.0 0.00 0.03 0.03 95 1011.9
20260508113748 41 287 0.0 4.0 0.00 0.03 0.03 95 1011.7
20260508113248 40 292 0.0 3.0 0.00 0.03 0.03 95 1011.7
20260508112747 40 310 0.0 2.0 0.00 0.03 0.03 94 1011.9
20260508112248 39 310 1.0 3.0 0.00 0.03 0.03 94 1011.6
20260508111747 39 310 1.0 3.0 0.00 0.03 0.03 94 1011.4
20260508111248 39 310 0.0 2.0 0.00 0.03 0.03 94 1011.7
20260508110748 38 310 0.0 2.0 0.00 0.03 0.03 94 1011.7
20260508110248 38 310 0.0 0.0 0.00 0.03 0.03 94 1011.9
20260508105747 38 310 0.0 0.0 0.00 0.03 0.03 93 1011.9
20260508105506 37 310 0.0 1.0 0.00 0.03 0.03 93 1012.0
20260508104748 37 310 0.0 1.0 0.00 0.03 0.03 93 1012.0
20260508104248 37 310 0.0 1.0 0.00 0.03 0.03 93 1012.0
20260508104014 37 310 0.0 1.0 0.00 0.03 0.03 93 1012.0
20260508103247 36 310 0.0 0.0 0.00 0.03 0.03 93 1012.2
20260508102748 36 310 0.0 0.0 0.00 0.03 0.03 92 1012.1
20260508101748 35 310 0.0 0.0 0.00 0.03 0.03 92 1012.0
20260508100748 35 310 0.0 0.0 0.00 0.03 0.03 92 1012.1
20260508100250 35 310 0.0 0.0 0.00 0.03 0.03 91 1012.1
20260508095748 35 310 0.0 0.0 0.00 0.03 0.03 91 1012.0
20260508095247 35 310 0.0 0.0 0.00 0.03 0.03 91 1012.0
20260508094748 35 310 0.0 0.0 0.00 0.03 0.03 91 1012.1
20260508094249 35 310 0.0 0.0 0.00 0.03 0.03 91 1012.1
20260508093747 35 310 0.0 0.0 0.00 0.03 0.03 91 1012.2
20260508093248 35 310 0.0 0.0 0.00 0.03 0.03 91 1012.0
20260508093016 36 310 0.0 0.0 0.00 0.03 0.03 91 1011.9
20260508092249 36 310 0.0 0.0 0.00 0.03 0.03 90 1011.9
20260508091748 36 310 0.0 0.0 0.00 0.03 0.03 90 1011.7
20260508091247 36 310 0.0 0.0 0.00 0.03 0.03 90 1011.6
20260508090747 36 310 0.0 0.0 0.00 0.03 0.03 90 1011.6
20260508090248 37 310 0.0 0.0 0.00 0.03 0.03 90 1011.6
20260508085747 37 310 0.0 0.0 0.00 0.03 0.03 90 1011.6
20260508085248 37 310 0.0 0.0 0.00 0.03 0.03 90 1011.6
20260508084748 37 310 0.0 1.0 0.00 0.03 0.03 90 1011.6
20260508084251 38 310 0.0 1.0 0.00 0.03 0.03 90 1011.7
20260508083747 38 310 0.0 0.0 0.00 0.03 0.03 90 1011.7
20260508083247 38 310 0.0 1.0 0.00 0.03 0.03 90 1011.6
20260508082748 38 310 0.0 2.0 0.00 0.03 0.03 90 1011.6
20260508082510 39 310 0.0 2.0 0.01 0.03 0.03 90 1011.6
20260508081747 39 310 0.0 1.0 0.01 0.03 0.03 90 1011.6
20260508081247 39 310 0.0 0.0 0.01 0.03 0.03 90 1011.6
20260508080747 40 310 0.0 0.0 0.01 0.03 0.03 90 1011.6
20260508080247 40 310 0.0 0.0 0.01 0.03 0.03 90 1011.6
20260508075747 40 310 0.0 0.0 0.01 0.03 0.03 91 1011.7
20260508075248 40 310 0.0 0.0 0.01 0.03 0.03 91 1011.6
20260508074747 40 310 0.0 0.0 0.01 0.03 0.03 90 1011.5
20260508074507 41 310 0.0 0.0 0.01 0.03 0.03 90 1011.4
20260508073747 41 310 0.0 0.0 0.01 0.03 0.03 91 1011.3
20260508073510 41 310 0.0 2.0 0.01 0.03 0.03 91 1011.6
20260508072747 41 310 0.0 2.0 0.01 0.03 0.03 90 1011.7
20260508072247 41 310 0.0 2.0 0.00 0.02 0.02 90 1011.9
20260508072007 41 310 1.0 3.0 0.00 0.02 0.02 90 1011.9
20260508070747 41 310 1.0 3.0 0.00 0.02 0.02 90 1011.9
20260508070248 41 310 1.0 5.0 0.00 0.02 0.02 90 1011.9
20260508065747 41 310 1.0 5.0 0.02 0.02 0.02 89 1011.9
20260508065506 41 311 1.0 4.0 0.02 0.02 0.02 89 1011.9
20260508064743 41 311 1.0 4.0 0.02 0.02 0.02 89 1012.0
20260508064243 41 311 1.0 3.0 0.02 0.02 0.02 89 1011.9
20260508063744 41 311 1.0 4.0 0.02 0.02 0.02 88 1011.7
20260508063243 41 311 2.0 5.0 0.02 0.02 0.02 88 1011.7
20260508062744 41 311 2.0 6.0 0.02 0.02 0.02 87 1011.7
20260508062239 41 325 2.0 6.0 0.02 0.02 0.02 87 1011.7
20260508061739 42 285 3.0 9.0 0.02 0.02 0.02 86 1011.6
20260508061502 42 284 4.0 10.0 0.02 0.02 0.02 85 1011.7
20260508060739 42 319 6.0 16.0 0.02 0.02 0.02 85 1011.6
20260508060240 42 285 6.0 16.0 0.01 0.01 0.01 84 1011.9
20260508055739 43 286 5.0 14.0 0.00 0.00 0.00 83 1011.7
20260508055240 43 306 4.0 12.0 0.00 0.00 0.00 83 1011.6
20260508055004 42 304 3.0 9.0 0.00 0.00 0.00 82 1011.6
20260508054239 42 302 3.0 9.0 0.00 0.00 0.00 82 1011.5
20260508054004 42 298 3.0 9.0 0.00 0.00 0.00 82 1011.5
20260508053239 42 290 3.0 7.0 0.00 0.00 0.00 82 1011.5
20260508052740 42 308 3.0 7.0 0.00 0.00 0.00 82 1011.6
20260508052239 42 304 2.0 6.0 0.00 0.00 0.00 82 1011.4
20260508051739 42 280 3.0 9.0 0.00 0.00 0.00 83 1011.5
20260508051503 41 266 4.0 12.0 0.00 0.00 0.00 84 1011.5
20260508050739 41 355 3.0 12.0 0.00 0.00 0.00 84 1011.4
20260508050239 40 285 1.0 9.0 0.00 0.00 0.00 85 1011.4
20260508045739 40 234 2.0 8.0 0.00 0.00 0.00 86 1011.4
20260508045239 40 303 2.0 8.0 0.00 0.00 0.00 86 1011.4
20260508044739 40 306 1.0 5.0 0.00 0.00 0.00 87 1011.3
20260508044239 40 355 0.0 3.0 0.00 0.00 0.00 88 1011.3
20260508043739 40 5 0.0 0.0 0.00 0.00 0.00 88 1011.4
20260508043239 40 5 0.0 0.0 0.00 0.00 0.00 88 1011.3